Location: Newark
(55.7083°N, 13.1992°E)
Time: 12:38:59
(UTC+00:00)

Transit 4A - Pass Details

Date: 25 February 2020
Orbit: 871 x 973 km, 66.8° (Epoch: 06 April)

Event Time Altitude Azimuth Distance (km) Brightness Sun altitude
Exits shadow 02:13:13 31° 346° (NNW) 1,505 9.1 -32.6°
Drops below altitude 10° 02:18:20 10° 48° (NE) 2,533 11.0 -32.0°
Sets 02:21:09 0° 59° (ENE) 3,479 12.0 -31.7°
